Location: Selby
(38.0566°N, 122.2439°W)
Time: 06:07:08
(UTC+00:00)

ALOS - Pass Details

Date: 22 May 2024
Orbit: 673 x 676 km, 98.0° (Epoch: 13 June)

Event Time Altitude Azimuth Distance (km) Brightness Sun altitude
Rises 12:17:00 0° 350° (N) 3,032 5.9 -6.9°
Reaches altitude 10° 12:20:28 10° 322° (NW) 2,111 4.7 -6.3°
Maximum altitude 12:22:25 13° 297° (WNW) 1,932 4.3 -6.0°
Drops below altitude 10° 12:24:23 10° 271° (W) 2,105 4.3 -5.7°
Enters shadow 12:26:05 - 255° (WSW) 2,489 4.5 -5.4°
